,,,PA_Meas_PMT16A,,PR_Meas_QMR101_102,,RH_Meas_QMH101,,SR_Meas_QMS101,,TA_Meas_QMH101,,GenWind,,GenWind,
date,time,status,PA,status,PR,status,RH,status,SR,status,TA,status,DirAvg,status,SpdAvg,
2010-03-20, 00:00:05,VALID,1005.22,VALID,0,VALID,95.2008,VALID,0,VALID,24.3441,VALID,222,VALID,0.239063,
2010-03-20, 00:01:05,VALID,1005.17,VALID,0,VALID,95.2389,VALID,0,VALID,24.3654,VALID,201,VALID,0.142188,
2010-03-20, 00:02:05,VALID,1005.19,VALID,0,VALID,95.2542,VALID,0,VALID,24.3849,VALID,269,VALID,0.828516,
2010-03-20, 00:03:05,VALID,1005.13,VALID,0,VALID,95.2389,VALID,0,VALID,24.4043,VALID,270,VALID,0.251953,
2010-03-20, 00:04:05,VALID,1005.14,VALID,0,VALID,95.2542,VALID,0,VALID,24.4238,VALID,280,VALID,0.417969,
2010-03-20, 00:05:05,VALID,1005.12,VALID,0,VALID,95.2771,VALID,0,VALID,24.4238,VALID,321,VALID,0.75,
2010-03-20, 00:06:05,VALID,1005.08,VALID,0,VALID,95.2695,VALID,0,VALID,24.4238,VALID,323,VALID,0.125,
2010-03-20, 00:07:05,VALID,1005.08,VALID,0,VALID,95.2923,VALID,0,VALID,24.4238,VALID,300,VALID,0.331641,
2010-03-20, 00:08:05,VALID,1005.02,VALID,0,VALID,95.2695,VALID,0,VALID,24.4433,VALID,189,VALID,0.142188,
2010-03-20, 00:09:05,VALID,1005.02,VALID,0,VALID,95.2923,VALID,0,VALID,24.4238,VALID,282,VALID,0.923437,
2010-03-20, 00:10:05,VALID,1005.01,VALID,0,VALID,95.2923,VALID,0,VALID,24.4043,VALID,200,VALID,0.421484,
2010-03-20, 00:11:05,VALID,1005.01,VALID,0,VALID,95.2923,VALID,0,VALID,24.3849,VALID,270,VALID,0.666406,
2010-03-20, 00:12:05,VALID,1005,VALID,0,VALID,95.2618,VALID,0,VALID,24.383,VALID,291,VALID,0.59375,
2010-03-20, 00:13:05,VALID,1004.97,VALID,0,VALID,95.2847,VALID,0,VALID,24.4025,VALID,301,VALID,0.936719,
2010-03-20, 00:14:05,VALID,1004.97,VALID,0,VALID,95.2695,VALID,0,VALID,24.4043,VALID,206,VALID,0.483203,
2010-03-20, 00:15:05,VALID,1004.97,VALID,0,VALID,95.2695,VALID,0,VALID,24.4238,VALID,247,VALID,0.542578,
2010-03-20, 00:16:05,VALID,1004.92,VALID,0,VALID,95.2771,VALID,0,VALID,24.4433,VALID,308,VALID,0.441016,
2010-03-20, 00:17:05,VALID,1004.91,VALID,0,VALID,95.2695,VALID,0,VALID,24.4238,VALID,348,VALID,0.684766,
2010-03-20, 00:18:05,VALID,1004.89,VALID,0,VALID,95.2542,VALID,0,VALID,24.4238,VALID,272,VALID,0.546875,
2010-03-20, 00:19:05,VALID,1004.86,VALID,0,VALID,95.2695,VALID,0,VALID,24.4433,VALID,273,VALID,0.13125,
2010-03-20, 00:20:05,VALID,1004.85,VALID,0,VALID,95.2542,VALID,0,VALID,24.4043,VALID,299,VALID,0.826953,
2010-03-20, 00:21:05,VALID,1004.84,VALID,0,VALID,95.2618,VALID,0,VALID,24.3617,VALID,350,VALID,0.519141,
2010-03-20, 00:22:05,VALID,1004.83,VALID,0,VALID,95.2389,VALID,0,VALID,24.4043,VALID,315,VALID,0.398828,
2010-03-20, 00:23:05,VALID,1004.84,VALID,0,VALID,95.2389,VALID,0,VALID,24.4043,VALID,297,VALID,0.953906,
2010-03-20, 00:24:05,VALID,1004.8,VALID,0,VALID,95.2389,VALID,0,VALID,24.3636,VALID,315,VALID,1.04922,
2010-03-20, 00:25:05,VALID,1004.77,VALID,0,VALID,95.2084,VALID,0,VALID,24.3849,VALID,302,VALID,1.29219,
2010-03-20, 00:26:05,VALID,1004.73,VALID,0,VALID,95.2237,VALID,0,VALID,24.3849,VALID,298,VALID,0.988281,
2010-03-20, 00:27:05,VALID,1004.74,VALID,0,VALID,95.2084,VALID,0,VALID,24.3654,VALID,289,VALID,0.569531,
2010-03-20, 00:28:05,VALID,1004.7,VALID,0,VALID,95.2008,VALID,0,VALID,24.4043,VALID,288,VALID,0.0832031,
2010-03-20, 00:29:05,VALID,1004.67,VALID,0,VALID,95.2084,VALID,0,VALID,24.4025,VALID,294,VALID,0.933594,
2010-03-20, 00:30:05,VALID,1004.64,VALID,0,VALID,95.2008,VALID,0,VALID,24.4238,VALID,271,VALID,0.383594,
2010-03-20, 00:31:05,VALID,1004.64,VALID,0,VALID,95.2084,VALID,0,VALID,24.4433,VALID,276,VALID,0.388672,
2010-03-20, 00:32:05,VALID,1004.6,VALID,0,VALID,95.2237,VALID,0,VALID,24.4433,VALID,275,VALID,0.951172,
2010-03-20, 00:33:05,VALID,1004.58,VALID,0,VALID,95.2389,VALID,0,VALID,24.422,VALID,253,VALID,0.375391,
2010-03-20, 00:34:05,VALID,1004.53,VALID,0,VALID,95.2313,VALID,0,VALID,24.4433,VALID,258,VALID,0.495313,
2010-03-20, 00:35:05,VALID,1004.54,VALID,0,VALID,95.2313,VALID,0,VALID,24.4433,VALID,248,VALID,0.258594,
2010-03-20, 00:36:05,VALID,1004.54,VALID,0,VALID,95.2313,VALID,0,VALID,24.4433,VALID,248,VALID,0.000390625,
2010-03-20, 00:37:05,VALID,1004.47,VALID,0,VALID,95.2237,VALID,0,VALID,24.4238,VALID,303,VALID,0.844141,
2010-03-20, 00:38:05,VALID,1004.47,VALID,0,VALID,95.2466,VALID,0,VALID,24.4043,VALID,279,VALID,0.75,
2010-03-20, 00:39:05,VALID,1004.42,VALID,0,VALID,95.2542,VALID,0,VALID,24.3849,VALID,293,VALID,1.22148,
2010-03-20, 00:40:05,VALID,1004.36,VALID,0,VALID,95.2389,VALID,0,VALID,24.3849,VALID,282,VALID,0.768359,
2010-03-20, 00:41:05,VALID,1004.3,VALID,0,VALID,95.2237,VALID,0,VALID,24.3654,VALID,310,VALID,0.946484,
2010-03-20, 00:42:05,VALID,1004.31,VALID,0,VALID,95.2008,VALID,0,VALID,24.3459,VALID,297,VALID,0.889063,
2010-03-20, 00:43:05,VALID,1004.28,VALID,0,VALID,95.1779,VALID,0,VALID,24.3265,VALID,280,VALID,0.669141,
2010-03-20, 00:44:05,VALID,1004.27,VALID,0,VALID,95.155,VALID,0,VALID,24.3459,VALID,289,VALID,1.12891,
2010-03-20, 00:45:05,VALID,1004.23,VALID,0,VALID,95.1321,VALID,0,VALID,24.3459,VALID,289,VALID,0.913672,
2010-03-20, 00:46:05,VALID,1004.23,VALID,0,VALID,95.0635,VALID,0,VALID,24.2857,VALID,293,VALID,0.620313,
2010-03-20, 00:47:05,VALID,1004.22,VALID,0,VALID,95.0177,VALID,0,VALID,24.307,VALID,281,VALID,0.441406,
2010-03-20, 00:48:05,VALID,1004.19,VALID,0,VALID,94.9872,VALID,0,VALID,24.3088,VALID,296,VALID,0.855078,
2010-03-20, 00:49:05,VALID,1004.19,VALID,0,VALID,94.9262,VALID,0,VALID,24.3088,VALID,300,VALID,0.555078,
2010-03-20, 00:50:05,VALID,1004.19,VALID,0,VALID,94.8651,VALID,0,VALID,24.2875,VALID,291,VALID,0.971094,
2010-03-20, 00:51:05,VALID,1004.14,VALID,0,VALID,94.8117,VALID,0,VALID,24.2468,VALID,279,VALID,0.434375,
2010-03-20, 00:52:05,VALID,1004.1,VALID,0,VALID,94.7431,VALID,0,VALID,24.2486,VALID,283,VALID,0.635156,
2010-03-20, 00:53:05,VALID,1004.12,VALID,0,VALID,94.6973,VALID,0,VALID,24.2681,VALID,261,VALID,0.253906,
2010-03-20, 00:54:05,VALID,1004.11,VALID,0,VALID,94.6973,VALID,0,VALID,24.2486,VALID,267,VALID,0.301953,
2010-03-20, 00:55:05,VALID,1004.09,VALID,0,VALID,94.682,VALID,0,VALID,24.2273,VALID,268,VALID,0.0785156,
2010-03-20, 00:56:05,VALID,1004.06,VALID,0,VALID,94.6744,VALID,0,VALID,24.2468,VALID,268,VALID,0.00195313,
2010-03-20, 00:57:05,VALID,1004.04,VALID,0,VALID,94.682,VALID,0,VALID,24.2273,VALID,270,VALID,0.251172,
2010-03-20, 00:58:05,VALID,1004.03,VALID,0,VALID,94.6973,VALID,0,VALID,24.2486,VALID,351,VALID,0.244531,
2010-03-20, 00:59:05,VALID,1004.03,VALID,0,VALID,94.7125,VALID,0,VALID,24.2273,VALID,351,VALID,0.040625,
2010-03-20, 01:00:05,VALID,1004.02,VALID,0,VALID,94.7125,VALID,0,VALID,24.2291,VALID,351,VALID,0.256641,
2010-03-20, 01:01:05,VALID,1004.01,VALID,0,VALID,94.7431,VALID,0,VALID,24.2273,VALID,351,VALID,0,
2010-03-20, 01:02:05,VALID,1004,VALID,0,VALID,94.7507,VALID,0,VALID,24.2486,VALID,351,VALID,0.046875,
2010-03-20, 01:03:05,VALID,1003.98,VALID,0,VALID,94.766,VALID,0,VALID,24.2291,VALID,351,VALID,0.491406,
2010-03-20, 01:04:05,VALID,1003.95,VALID,0,VALID,94.7736,VALID,0,VALID,24.2291,VALID,352,VALID,0.754297,
2010-03-20, 01:05:05,VALID,1003.94,VALID,0,VALID,94.766,VALID,0,VALID,24.2078,VALID,353,VALID,0.405469,
2010-03-20, 01:06:05,VALID,1003.92,VALID,0,VALID,94.766,VALID,0,VALID,24.2078,VALID,353,VALID,0.469141,
2010-03-20, 01:07:05,VALID,1003.89,VALID,0,VALID,94.766,VALID,0,VALID,24.1884,VALID,339,VALID,0.425391,
2010-03-20, 01:08:05,VALID,1003.91,VALID,0,VALID,94.766,VALID,0,VALID,24.1689,VALID,345,VALID,0.523828,
2010-03-20, 01:09:05,VALID,1003.89,VALID,0,VALID,94.7583,VALID,0,VALID,24.1494,VALID,345,VALID,0.43125,
2010-03-20, 01:10:05,VALID,1003.89,VALID,0,VALID,94.7431,VALID,0,VALID,24.13,VALID,345,VALID,0.398828,
2010-03-20, 01:11:05,VALID,1003.87,VALID,0,VALID,94.766,VALID,0,VALID,24.1513,VALID,346,VALID,0.576172,
2010-03-20, 01:12:05,VALID,1003.87,VALID,0,VALID,94.8041,VALID,0,VALID,24.13,VALID,346,VALID,0.642578,
2010-03-20, 01:13:05,VALID,1003.86,VALID,0,VALID,94.8117,VALID,0,VALID,24.13,VALID,351,VALID,0.7125,
2010-03-20, 01:14:05,VALID,1003.82,VALID,0,VALID,94.8346,VALID,0,VALID,24.1513,VALID,351,VALID,0.713281,
2010-03-20, 01:15:05,VALID,1003.85,VALID,0,VALID,94.8575,VALID,0,VALID,24.1513,VALID,354,VALID,0.510547,
2010-03-20, 01:16:05,VALID,1003.82,VALID,0,VALID,94.8651,VALID,0,VALID,24.0892,VALID,303,VALID,0.190234,
2010-03-20, 01:17:05,VALID,1003.8,VALID,0,VALID,94.9033,VALID,0,VALID,24.13,VALID,314,VALID,0.429688,
2010-03-20, 01:18:05,VALID,1003.77,VALID,0,VALID,94.949,VALID,0,VALID,24.13,VALID,319,VALID,0.307031,
2010-03-20, 01:19:05,VALID,1003.75,VALID,0,VALID,94.949,VALID,0,VALID,24.1105,VALID,320,VALID,0.135937,
2010-03-20, 01:20:05,VALID,1003.73,VALID,0,VALID,94.9719,VALID,0,VALID,24.1105,VALID,317,VALID,0.497266,
2010-03-20, 01:21:05,VALID,1003.74,VALID,0,VALID,94.9719,VALID,0,VALID,24.13,VALID,310,VALID,0.456641,
2010-03-20, 01:22:05,VALID,1003.66,VALID,0,VALID,95.0101,VALID,0,VALID,24.1318,VALID,294,VALID,0.751172,
2010-03-20, 01:23:05,VALID,1003.66,VALID,0,VALID,95.0101,VALID,0,VALID,24.1105,VALID,296,VALID,0.754297,
2010-03-20, 01:24:05,VALID,1003.61,VALID,0,VALID,94.9872,VALID,0,VALID,24.1105,VALID,287,VALID,0.434766,
2010-03-20, 01:25:05,VALID,1003.59,VALID,0,VALID,94.9948,VALID,0,VALID,24.13,VALID,287,VALID,0.575781,
2010-03-20, 01:26:05,VALID,1003.55,VALID,0,VALID,95.0101,VALID,0,VALID,24.13,VALID,287,VALID,0.324609,
2010-03-20, 01:27:05,VALID,1003.54,VALID,0,VALID,95.0024,VALID,0,VALID,24.1105,VALID,280,VALID,0.421875,
2010-03-20, 01:28:05,VALID,1003.54,VALID,0,VALID,94.9872,VALID,0,VALID,24.13,VALID,276,VALID,0.242188,
2010-03-20, 01:29:05,VALID,1003.49,VALID,0,VALID,94.9872,VALID,0,VALID,24.13,VALID,276,VALID,0.00585938,
2010-03-20, 01:30:05,VALID,1003.5,VALID,0,VALID,94.9872,VALID,0,VALID,24.13,VALID,276,VALID,0.128125,
2010-03-20, 01:31:05,VALID,1003.53,VALID,0,VALID,94.9796,VALID,0,VALID,24.13,VALID,276,VALID,0,
2010-03-20, 01:32:04,VALID,1003.51,VALID,0,VALID,94.9796,VALID,0,VALID,24.1105,VALID,276,VALID,0.0589844,
2010-03-20, 01:33:04,VALID,1003.54,VALID,0,VALID,94.9567,VALID,0,VALID,24.13,VALID,276,VALID,0.0078125,
2010-03-20, 01:34:04,VALID,1003.54,VALID,0,VALID,94.9948,VALID,0,VALID,24.1318,VALID,276,VALID,0.0753906,
2010-03-20, 01:35:04,VALID,1003.54,VALID,0,VALID,94.9796,VALID,0,VALID,24.1105,VALID,276,VALID,0.0699219,
2010-03-20, 01:36:04,VALID,1003.55,VALID,0,VALID,94.9872,VALID,0,VALID,24.1105,VALID,343,VALID,0.685156,
2010-03-20, 01:37:04,VALID,1003.55,VALID,0,VALID,94.9567,VALID,0,VALID,24.1105,VALID,345,VALID,0.0492188,
2010-03-20, 01:38:04,VALID,1003.56,VALID,0,VALID,94.9719,VALID,0,VALID,24.091,VALID,312,VALID,0.465234,
2010-03-20, 01:39:04,VALID,1003.59,VALID,0,VALID,94.9643,VALID,0,VALID,24.1123,VALID,309,VALID,0.381641,
2010-03-20, 01:40:04,VALID,1003.55,VALID,0,VALID,94.9719,VALID,0,VALID,24.091,VALID,309,VALID,0.267188,
2010-03-20, 01:41:04,VALID,1003.58,VALID,0,VALID,94.9719,VALID,0,VALID,24.091,VALID,310,VALID,0.414844,
2010-03-20, 01:42:04,VALID,1003.56,VALID,0,VALID,94.949,VALID,0,VALID,24.0929,VALID,298,VALID,0.278125,
2010-03-20, 01:43:04,VALID,1003.57,VALID,0,VALID,94.9643,VALID,0,VALID,24.091,VALID,300,VALID,0.229687,
2010-03-20, 01:44:04,VALID,1003.59,VALID,0,VALID,94.9338,VALID,0,VALID,24.1105,VALID,300,VALID,0.172266,
2010-03-20, 01:45:04,VALID,1003.56,VALID,0,VALID,94.949,VALID,0,VALID,24.091,VALID,305,VALID,0.341406,
2010-03-20, 01:46:04,VALID,1003.56,VALID,0,VALID,94.9414,VALID,0,VALID,24.091,VALID,344,VALID,0.406641,
2010-03-20, 01:47:04,VALID,1003.55,VALID,0,VALID,94.9262,VALID,0,VALID,24.0716,VALID,331,VALID,0.303125,
2010-03-20, 01:48:04,VALID,1003.56,VALID,0,VALID,94.8956,VALID,0,VALID,24.0716,VALID,324,VALID,0.294141,
2010-03-20, 01:49:04,VALID,1003.54,VALID,0,VALID,94.8651,VALID,0,VALID,24.0521,VALID,294,VALID,0.500391,
2010-03-20, 01:50:04,VALID,1003.54,VALID,0,VALID,94.8346,VALID,0,VALID,24.0521,VALID,291,VALID,0.196094,
2010-03-20, 01:51:04,VALID,1003.45,VALID,0,VALID,94.8194,VALID,0,VALID,24.0521,VALID,301,VALID,0.721484,
2010-03-20, 01:52:04,VALID,1003.45,VALID,0,VALID,94.8117,VALID,0,VALID,24.0716,VALID,301,VALID,0.00664063,
2010-03-20, 01:53:04,VALID,1003.42,VALID,0,VALID,94.827,VALID,0,VALID,24.0521,VALID,256,VALID,0.484375,
2010-03-20, 01:54:04,VALID,1003.38,VALID,0,VALID,94.8117,VALID,0,VALID,24.0326,VALID,296,VALID,0.2375,
2010-03-20, 01:55:04,VALID,1003.34,VALID,0,VALID,94.7888,VALID,0,VALID,24.0539,VALID,273,VALID,0.394141,
2010-03-20, 01:56:04,VALID,1003.34,VALID,0,VALID,94.7812,VALID,0,VALID,24.0521,VALID,285,VALID,0.428516,
2010-03-20, 01:57:04,VALID,1003.33,VALID,0,VALID,94.7736,VALID,0,VALID,24.0716,VALID,300,VALID,0.324219,
2010-03-20, 01:58:04,VALID,1003.28,VALID,0,VALID,94.7583,VALID,0,VALID,24.0929,VALID,300,VALID,0.234766,
2010-03-20, 01:59:04,VALID,1003.27,VALID,0,VALID,94.7431,VALID,0,VALID,24.0716,VALID,323,VALID,0.175391,
2010-03-20, 02:00:04,VALID,1003.23,VALID,0,VALID,94.7125,VALID,0,VALID,24.0697,VALID,290,VALID,0.484375,
2010-03-20, 02:01:04,VALID,1003.21,VALID,0,VALID,94.6744,VALID,0,VALID,24.0929,VALID,328,VALID,0.503125,
2010-03-20, 02:02:04,VALID,1003.18,VALID,0,VALID,94.6439,VALID,0,VALID,24.1123,VALID,8,VALID,0.0742188,
2010-03-20, 02:03:04,VALID,1003.19,VALID,0,VALID,94.6057,VALID,0,VALID,24.0716,VALID,8,VALID,0,
2010-03-20, 02:04:04,VALID,1003.15,VALID,0,VALID,94.56,VALID,0,VALID,24.0716,VALID,4,VALID,0,
2010-03-20, 02:05:04,VALID,1003.14,VALID,0,VALID,94.5066,VALID,0,VALID,24.0716,VALID,282,VALID,0.592578,
2010-03-20, 02:06:04,VALID,1003.15,VALID,0,VALID,94.4761,VALID,0,VALID,24.0929,VALID,278,VALID,0.355078,
2010-03-20, 02:07:04,VALID,1003.18,VALID,0.5,VALID,94.4455,VALID,0,VALID,24.0929,VALID,278,VALID,0.034375,
2010-03-20, 02:08:04,VALID,1003.16,VALID,0,VALID,94.4303,VALID,0,VALID,24.0521,VALID,355,VALID,0.441797,
2010-03-20, 02:09:04,VALID,1003.16,VALID,0,VALID,94.3921,VALID,0,VALID,24.0716,VALID,354,VALID,0.320703,
2010-03-20, 02:10:04,VALID,1003.15,VALID,0,VALID,94.3692,VALID,0,VALID,24.0521,VALID,354,VALID,0.281641,
2010-03-20, 02:11:04,VALID,1003.17,VALID,0,VALID,94.3464,VALID,0,VALID,24.0521,VALID,353,VALID,0.607031,
2010-03-20, 02:12:04,VALID,1003.16,VALID,0,VALID,94.3006,VALID,0,VALID,24.0539,VALID,352,VALID,0.540234,
2010-03-20, 02:13:04,VALID,1003.12,VALID,0,VALID,94.3235,VALID,0,VALID,24.0521,VALID,353,VALID,0.456641,
2010-03-20, 02:14:04,VALID,1003.13,VALID,0,VALID,94.3235,VALID,0,VALID,24.0326,VALID,353,VALID,0.373828,
2010-03-20, 02:15:04,VALID,1003.11,VALID,0,VALID,94.3616,VALID,0,VALID,24.0132,VALID,353,VALID,0.45,
2010-03-20, 02:16:04,VALID,1003.11,VALID,0,VALID,94.3845,VALID,0,VALID,23.9937,VALID,353,VALID,0.380859,
2010-03-20, 02:17:04,VALID,1003.08,VALID,0,VALID,94.415,VALID,0,VALID,23.9937,VALID,353,VALID,0.503125,
2010-03-20, 02:18:04,VALID,1003.05,VALID,0,VALID,94.4303,VALID,0,VALID,23.9955,VALID,353,VALID,0.423047,
2010-03-20, 02:19:04,VALID,1003.07,VALID,0,VALID,94.4761,VALID,0,VALID,23.9955,VALID,353,VALID,0.317187,
2010-03-20, 02:20:04,VALID,1003.08,VALID,0,VALID,94.5371,VALID,0,VALID,23.9761,VALID,352,VALID,0.649609,
2010-03-20, 02:21:04,VALID,1003.08,VALID,0,VALID,94.4761,VALID,0,VALID,23.9159,VALID,350,VALID,0.56875,
2010-03-20, 02:22:04,VALID,1003.04,VALID,0,VALID,94.4684,VALID,0,VALID,23.9371,VALID,351,VALID,0.519531,
2010-03-20, 02:23:04,VALID,1003.03,VALID,0,VALID,94.4761,VALID,0,VALID,23.8964,VALID,349,VALID,0.592578,
2010-03-20, 02:24:04,VALID,1003.02,VALID,0,VALID,94.4608,VALID,0,VALID,23.8964,VALID,343,VALID,0.639844,
2010-03-20, 02:25:04,VALID,1003.01,VALID,0,VALID,94.5066,VALID,0,VALID,23.9177,VALID,343,VALID,0.4,
2010-03-20, 02:26:04,VALID,1003,VALID,0,VALID,94.5295,VALID,0,VALID,23.9177,VALID,343,VALID,0.320703,
2010-03-20, 02:27:04,VALID,1002.97,VALID,0,VALID,94.5752,VALID,0,VALID,23.9177,VALID,319,VALID,0.552344,
2010-03-20, 02:28:04,VALID,1003.01,VALID,0,VALID,94.5981,VALID,0,VALID,23.8946,VALID,314,VALID,0.386328,
2010-03-20, 02:29:04,VALID,1002.98,VALID,0,VALID,94.5981,VALID,0.100563,VALID,23.9159,VALID,336,VALID,0.605859,
2010-03-20, 02:30:04,VALID,1002.98,VALID,0,VALID,94.6057,VALID,0,VALID,23.9159,VALID,342,VALID,0.472656,
2010-03-20, 02:31:04,VALID,1003,VALID,0,VALID,94.621,VALID,0.100563,VALID,23.9159,VALID,345,VALID,0.737891,
2010-03-20, 02:32:04,VALID,1002.98,VALID,0,VALID,94.6286,VALID,0,VALID,23.9177,VALID,346,VALID,0.753516,
2010-03-20, 02:33:04,VALID,1002.99,VALID,0,VALID,94.621,VALID,0,VALID,23.8964,VALID,346,VALID,0.651953,
2010-03-20, 02:34:04,VALID,1003.03,VALID,0,VALID,94.6134,VALID,0,VALID,23.8751,VALID,358,VALID,0.211328,
2010-03-20, 02:35:04,VALID,1003.03,VALID,0,VALID,94.6439,VALID,0.100563,VALID,23.9159,VALID,358,VALID,0.0796875,
2010-03-20, 02:36:04,VALID,1003.02,VALID,0,VALID,94.6591,VALID,0,VALID,23.9159,VALID,358,VALID,0.127344,
2010-03-20, 02:37:04,VALID,1003,VALID,0,VALID,94.682,VALID,0,VALID,23.9353,VALID,358,VALID,0.314453,
2010-03-20, 02:38:04,VALID,1003.02,VALID,0,VALID,94.7278,VALID,0,VALID,23.9548,VALID,351,VALID,0.715625,
2010-03-20, 02:39:04,VALID,1003.03,VALID,0,VALID,94.7278,VALID,0,VALID,23.9335,VALID,325,VALID,0.453516,
2010-03-20, 02:40:04,VALID,1003.01,VALID,0,VALID,94.7125,VALID,0,VALID,23.9548,VALID,325,VALID,0.200391,
2010-03-20, 02:41:04,VALID,1003.03,VALID,0,VALID,94.7354,VALID,0,VALID,23.9742,VALID,328,VALID,0.2875,
2010-03-20, 02:42:04,VALID,1003.01,VALID,0,VALID,94.7354,VALID,0,VALID,23.9742,VALID,328,VALID,0.0828125,
2010-03-20, 02:43:04,VALID,1003.03,VALID,0,VALID,94.7507,VALID,0,VALID,23.9937,VALID,324,VALID,0.0511719,
2010-03-20, 02:44:04,VALID,1003.05,VALID,0,VALID,94.766,VALID,0,VALID,23.9937,VALID,333,VALID,0.517969,
2010-03-20, 02:45:04,VALID,1003.04,VALID,0,VALID,94.7583,VALID,0,VALID,23.9955,VALID,343,VALID,0.975781,
2010-03-20, 02:46:04,VALID,1003.06,VALID,0,VALID,94.7125,VALID,0,VALID,23.9335,VALID,348,VALID,0.793359,
2010-03-20, 02:47:04,VALID,1003.05,VALID,0,VALID,94.6668,VALID,0,VALID,23.9548,VALID,351,VALID,0.803125,
2010-03-20, 02:48:04,VALID,1003.08,VALID,0,VALID,94.5981,VALID,0,VALID,23.9353,VALID,351,VALID,0.959766,
2010-03-20, 02:49:04,VALID,1003.05,VALID,0,VALID,94.5447,VALID,0,VALID,23.9335,VALID,335,VALID,0.65625,
2010-03-20, 02:50:04,VALID,1003.09,VALID,0,VALID,94.5905,VALID,0,VALID,23.9742,VALID,344,VALID,0.4,
2010-03-20, 02:51:04,VALID,1003.08,VALID,0,VALID,94.56,VALID,0.100563,VALID,23.9548,VALID,353,VALID,0.799609,
2010-03-20, 02:52:04,VALID,1003.08,VALID,0,VALID,94.5295,VALID,0,VALID,23.9548,VALID,352,VALID,0.914063,
2010-03-20, 02:53:04,VALID,1003.07,VALID,0,VALID,94.4608,VALID,0,VALID,23.9353,VALID,342,VALID,0.600781,
2010-03-20, 02:54:04,VALID,1003.07,VALID,0,VALID,94.4532,VALID,0,VALID,23.9761,VALID,314,VALID,0.506641,
2010-03-20, 02:55:04,VALID,1003.09,VALID,0,VALID,94.4608,VALID,0,VALID,23.9742,VALID,357,VALID,0.51875,
2010-03-20, 02:56:04,VALID,1003.06,VALID,0,VALID,94.4684,VALID,0,VALID,23.9742,VALID,1,VALID,0.577344,
2010-03-20, 02:57:04,VALID,1003.04,VALID,0,VALID,94.4608,VALID,0,VALID,23.9742,VALID,342,VALID,0.2625,
2010-03-20, 02:58:04,VALID,1003.02,VALID,0,VALID,94.4379,VALID,0,VALID,23.9742,VALID,351,VALID,0.547656,
2010-03-20, 02:59:04,VALID,1003.04,VALID,0,VALID,94.4455,VALID,0,VALID,23.9742,VALID,4,VALID,0.509375,
2010-03-20, 03:00:04,VALID,1003.04,VALID,0,VALID,94.4379,VALID,0,VALID,23.9955,VALID,3,VALID,0.686719,
2010-03-20, 03:01:04,VALID,1003.04,VALID,0,VALID,94.4303,VALID,0,VALID,23.9742,VALID,356,VALID,0.921094,
2010-03-20, 03:02:04,VALID,1002.99,VALID,0,VALID,94.4455,VALID,0.100563,VALID,23.9742,VALID,357,VALID,0.596875,
2010-03-20, 03:03:04,VALID,1002.99,VALID,0,VALID,94.4303,VALID,0.100563,VALID,23.9742,VALID,351,VALID,1.02227,
2010-03-20, 03:04:04,VALID,1002.99,VALID,0,VALID,94.3998,VALID,0,VALID,23.9742,VALID,357,VALID,0.821094,
2010-03-20, 03:05:04,VALID,1002.99,VALID,0,VALID,94.3921,VALID,0,VALID,23.9955,VALID,346,VALID,0.574219,
2010-03-20, 03:06:04,VALID,1002.96,VALID,0,VALID,94.4379,VALID,0,VALID,23.9937,VALID,358,VALID,0.642578,
2010-03-20, 03:07:04,VALID,1002.99,VALID,0,VALID,94.4455,VALID,0,VALID,23.9742,VALID,352,VALID,0.610156,
2010-03-20, 03:08:04,VALID,1003,VALID,0,VALID,94.4532,VALID,0,VALID,23.9955,VALID,348,VALID,0.569922,
2010-03-20, 03:09:04,VALID,1002.99,VALID,0,VALID,94.4684,VALID,0,VALID,23.9937,VALID,348,VALID,0.249219,
2010-03-20, 03:10:04,VALID,1002.99,VALID,0,VALID,94.4532,VALID,0,VALID,23.9742,VALID,350,VALID,0.546484,
2010-03-20, 03:11:04,VALID,1002.98,VALID,0,VALID,94.4684,VALID,0,VALID,23.9724,VALID,350,VALID,0.35,
2010-03-20, 03:12:04,VALID,1002.99,VALID,0,VALID,94.4455,VALID,0,VALID,23.9742,VALID,346,VALID,0.882422,
2010-03-20, 03:13:04,VALID,1002.96,VALID,0,VALID,94.3921,VALID,0,VALID,23.9548,VALID,343,VALID,0.575781,
2010-03-20, 03:14:04,VALID,1002.94,VALID,0,VALID,94.3616,VALID,0,VALID,23.9548,VALID,345,VALID,0.637109,
2010-03-20, 03:15:04,VALID,1002.94,VALID,0,VALID,94.354,VALID,0,VALID,23.9742,VALID,345,VALID,0.156641,
2010-03-20, 03:16:04,VALID,1002.9,VALID,0,VALID,94.3235,VALID,0,VALID,23.9548,VALID,351,VALID,1.26523,
2010-03-20, 03:17:04,VALID,1002.85,VALID,0,VALID,94.2319,VALID,0.100563,VALID,23.9548,VALID,359,VALID,0.832422,
2010-03-20, 03:18:04,VALID,1002.87,VALID,0,VALID,94.1633,VALID,0,VALID,23.9742,VALID,16,VALID,0.320703,
2010-03-20, 03:19:04,VALID,1002.85,VALID,0,VALID,94.0946,VALID,0,VALID,23.9937,VALID,6,VALID,0.627344,
2010-03-20, 03:20:04,VALID,1002.82,VALID,0,VALID,94.0336,VALID,0,VALID,23.9937,VALID,360,VALID,0.890625,
2010-03-20, 03:21:04,VALID,1002.79,VALID,0,VALID,93.942,VALID,0,VALID,23.9937,VALID,359,VALID,0.635547,
2010-03-20, 03:22:04,VALID,1002.75,VALID,0,VALID,93.9115,VALID,0,VALID,24.0132,VALID,34,VALID,0.291016,
2010-03-20, 03:23:04,VALID,1002.75,VALID,0,VALID,93.8581,VALID,0,VALID,24.0345,VALID,28,VALID,0.871875,
2010-03-20, 03:24:04,VALID,1002.74,VALID,0,VALID,93.7589,VALID,0,VALID,23.9937,VALID,4,VALID,0.598828,
2010-03-20, 03:25:04,VALID,1002.73,VALID,0,VALID,93.7132,VALID,0.100563,VALID,23.9937,VALID,357,VALID,0.770312,
2010-03-20, 03:26:04,VALID,1002.73,VALID,0,VALID,93.6674,VALID,0.100563,VALID,23.9742,VALID,343,VALID,0.775391,
2010-03-20, 03:27:04,VALID,1002.72,VALID,0,VALID,93.6369,VALID,0,VALID,23.9742,VALID,336,VALID,0.589453,
2010-03-20, 03:28:04,VALID,1002.72,VALID,0,VALID,93.5835,VALID,0,VALID,23.9955,VALID,354,VALID,0.585156,
2010-03-20, 03:29:04,VALID,1002.71,VALID,0,VALID,93.6064,VALID,0.100563,VALID,24.015,VALID,11,VALID,0.499609,
2010-03-20, 03:30:04,VALID,1002.69,VALID,0,VALID,93.5911,VALID,0,VALID,23.9761,VALID,326,VALID,0.578906,
2010-03-20, 03:31:04,VALID,1002.7,VALID,0,VALID,93.6674,VALID,0,VALID,23.9566,VALID,332,VALID,0.894922,
2010-03-20, 03:32:04,VALID,1002.67,VALID,0,VALID,93.6292,VALID,0,VALID,23.9566,VALID,354,VALID,0.5625,
2010-03-20, 03:33:04,VALID,1002.68,VALID,0,VALID,93.6369,VALID,0,VALID,23.9566,VALID,292,VALID,0.595703,
2010-03-20, 03:34:04,VALID,1002.67,VALID,0,VALID,93.6292,VALID,0,VALID,23.9371,VALID,345,VALID,0.738672,
2010-03-20, 03:35:04,VALID,1002.68,VALID,0,VALID,93.6598,VALID,0,VALID,23.9371,VALID,337,VALID,0.785937,
2010-03-20, 03:36:04,VALID,1002.64,VALID,0,VALID,93.5987,VALID,0,VALID,23.9371,VALID,349,VALID,0.756641,
2010-03-20, 03:37:04,VALID,1002.63,VALID,0,VALID,93.5758,VALID,0,VALID,23.9371,VALID,349,VALID,0.704297,
2010-03-20, 03:38:04,VALID,1002.62,VALID,0,VALID,93.614,VALID,0,VALID,23.9389,VALID,329,VALID,0.733984,
2010-03-20, 03:39:04,VALID,1002.63,VALID,0,VALID,93.6292,VALID,0.100563,VALID,23.9159,VALID,8,VALID,0.504687,
2010-03-20, 03:40:04,VALID,1002.62,VALID,0,VALID,93.6826,VALID,0,VALID,23.8964,VALID,352,VALID,0.726953,
2010-03-20, 03:41:04,VALID,1002.63,VALID,0,VALID,93.6826,VALID,0,VALID,23.8964,VALID,356,VALID,0.213672,
2010-03-20, 03:42:04,VALID,1002.61,VALID,0,VALID,93.7132,VALID,0.100563,VALID,23.8964,VALID,358,VALID,0.832422,
2010-03-20, 03:43:04,VALID,1002.58,VALID,0,VALID,93.7208,VALID,0,VALID,23.8575,VALID,357,VALID,0.45625,
2010-03-20, 03:44:04,VALID,1002.56,VALID,0,VALID,93.7284,VALID,0,VALID,23.8575,VALID,356,VALID,0.655469,